Time,TemperatureF,DewpointF,PressureIn,WindDirection,WindDirectionDegrees,WindSpeedMPH,WindSpeedGustMPH,Humidity,HourlyPrecipIn,Conditions,Clouds,dailyrainin,SolarRadiationWatts/m^2,SoftwareType,DateUTC
2013-05-25 00:02:00,61.9,30.0,29.88,SSW,207,1.0,13.0,30,0.00,,,0.00,0.0,meteohub,2013-05-25 07:02:00,
2013-05-25 00:07:00,61.9,30.0,29.88,SSW,211,0.0,13.0,30,0.00,,,0.00,0.0,meteohub,2013-05-25 07:07:00,
2013-05-25 00:12:00,61.9,30.0,29.88,SW,225,2.0,13.0,30,0.00,,,0.00,0.0,meteohub,2013-05-25 07:12:00,
2013-05-25 00:17:00,61.9,30.9,29.88,SW,225,1.0,13.0,31,0.00,,,0.00,0.0,meteohub,2013-05-25 07:17:00,
2013-05-25 00:23:00,61.7,31.5,29.88,SSW,205,5.0,13.0,32,0.00,,,0.00,0.0,meteohub,2013-05-25 07:23:00,
2013-05-25 00:28:00,61.5,30.6,29.88,South,188,5.0,13.0,31,0.00,,,0.00,0.0,meteohub,2013-05-25 07:28:00,
2013-05-25 00:33:00,61.5,30.6,29.88,SSW,197,4.0,13.0,31,0.00,,,0.00,0.0,meteohub,2013-05-25 07:33:00,
2013-05-25 00:38:00,61.5,31.5,29.87,South,178,0.0,13.0,32,0.00,,,0.00,0.0,meteohub,2013-05-25 07:38:00,
2013-05-25 00:43:00,61.5,31.5,29.87,South,185,5.0,13.0,32,0.00,,,0.00,0.0,meteohub,2013-05-25 07:43:00,
2013-05-25 00:48:00,61.5,32.2,29.87,South,186,1.0,13.0,33,0.00,,,0.00,0.0,meteohub,2013-05-25 07:48:00,
2013-05-25 00:53:00,61.3,32.0,29.87,South,186,0.0,13.0,33,0.00,,,0.00,0.0,meteohub,2013-05-25 07:53:00,
2013-05-25 00:58:00,61.3,32.0,29.87,South,186,1.0,13.0,33,0.00,,,0.00,0.0,meteohub,2013-05-25 07:58:00,
2013-05-25 01:03:00,61.2,32.5,29.87,South,186,0.0,13.0,34,0.00,,,0.00,0.0,meteohub,2013-05-25 08:03:00,
2013-05-25 01:08:00,61.2,32.5,29.87,SSW,192,0.0,7.0,34,0.00,,,0.00,0.0,meteohub,2013-05-25 08:08:00,
2013-05-25 01:13:00,61.2,32.5,29.87,SW,214,4.0,7.0,34,0.00,,,0.00,0.0,meteohub,2013-05-25 08:13:00,
2013-05-25 01:18:00,61.2,33.3,29.86,SW,215,0.0,7.0,35,0.00,,,0.00,0.0,meteohub,2013-05-25 08:18:00,
2013-05-25 01:23:00,61.2,33.3,29.87,SW,221,10.0,10.0,35,0.00,,,0.00,0.0,meteohub,2013-05-25 08:23:00,
2013-05-25 01:28:00,61.2,34.0,29.87,SW,221,0.0,7.0,36,0.00,,,0.00,0.0,meteohub,2013-05-25 08:28:00,
2013-05-25 01:33:00,61.0,34.5,29.86,SW,214,8.0,8.0,37,0.00,,,0.00,0.0,meteohub,2013-05-25 08:33:00,
2013-05-25 01:38:00,61.0,34.5,29.86,SW,223,4.0,7.0,37,0.00,,,0.00,0.0,meteohub,2013-05-25 08:38:00,
2013-05-25 01:43:00,60.8,35.1,29.86,SSW,194,0.0,7.0,38,0.00,,,0.00,0.0,meteohub,2013-05-25 08:43:00,
2013-05-25 01:48:00,60.6,35.6,29.86,SW,219,0.0,7.0,39,0.00,,,0.00,0.0,meteohub,2013-05-25 08:48:00,
2013-05-25 01:53:00,60.3,35.8,29.86,SW,219,0.0,7.0,40,0.00,,,0.00,0.0,meteohub,2013-05-25 08:53:00,
2013-05-25 01:58:00,60.1,36.3,29.86,SW,221,1.0,7.0,41,0.00,,,0.00,0.0,meteohub,2013-05-25 08:58:00,
2013-05-25 02:03:00,59.9,36.1,29.86,SW,221,4.0,7.0,41,0.00,,,0.00,0.0,meteohub,2013-05-25 09:03:00,
2013-05-25 02:08:00,59.7,36.5,29.86,SW,223,0.0,9.0,42,0.00,,,0.00,0.0,meteohub,2013-05-25 09:08:00,
2013-05-25 02:13:00,59.5,36.5,29.86,SW,223,0.0,9.0,42,0.00,,,0.00,0.0,meteohub,2013-05-25 09:13:00,
2013-05-25 02:18:00,59.4,36.9,29.86,SW,223,0.0,9.0,43,0.00,,,0.00,0.0,meteohub,2013-05-25 09:18:00,
2013-05-25 02:23:00,59.2,36.7,29.86,SW,225,7.0,9.0,43,0.00,,,0.00,0.0,meteohub,2013-05-25 09:23:00,
2013-05-25 02:28:00,59.2,36.7,29.86,SW,225,0.0,9.0,43,0.00,,,0.00,0.0,meteohub,2013-05-25 09:28:00,
2013-05-25 02:33:00,59.0,36.5,29.86,SW,225,0.0,9.0,43,0.00,,,0.00,0.0,meteohub,2013-05-25 09:33:00,
2013-05-25 02:38:00,58.8,35.8,29.86,SW,225,0.0,9.0,42,0.00,,,0.00,0.0,meteohub,2013-05-25 09:38:00,
2013-05-25 02:43:00,58.8,35.8,29.86,SW,225,2.0,9.0,42,0.00,,,0.00,0.0,meteohub,2013-05-25 09:43:00,
2013-05-25 02:48:00,58.8,35.8,29.86,SW,225,0.0,9.0,42,0.00,,,0.00,0.0,meteohub,2013-05-25 09:48:00,
2013-05-25 02:53:00,59.0,36.0,29.86,SW,223,3.0,9.0,42,0.00,,,0.00,0.0,meteohub,2013-05-25 09:53:00,
2013-05-25 02:58:00,59.0,35.4,29.86,SSW,203,3.0,9.0,41,0.00,,,0.00,0.0,meteohub,2013-05-25 09:58:00,
2013-05-25 03:03:00,59.0,35.4,29.85,SSW,200,1.0,9.0,41,0.00,,,0.00,0.0,meteohub,2013-05-25 10:03:00,
2013-05-25 03:08:00,58.8,35.2,29.85,SSW,202,1.0,7.0,41,0.00,,,0.00,0.0,meteohub,2013-05-25 10:08:00,
2013-05-25 03:13:00,58.8,35.2,29.85,SSW,201,0.0,7.0,41,0.00,,,0.00,0.0,meteohub,2013-05-25 10:13:00,
2013-05-25 03:18:00,58.8,35.2,29.85,SSW,207,0.0,7.0,41,0.00,,,0.00,0.0,meteohub,2013-05-25 10:18:00,
2013-05-25 03:23:00,58.6,35.6,29.85,SSW,207,0.0,7.0,42,0.00,,,0.00,0.0,meteohub,2013-05-25 10:23:00,
2013-05-25 03:28:00,58.6,35.6,29.85,SSW,207,0.0,7.0,42,0.00,,,0.00,0.0,meteohub,2013-05-25 10:28:00,
2013-05-25 03:33:00,58.6,36.1,29.85,SSW,207,0.0,7.0,43,0.00,,,0.00,0.0,meteohub,2013-05-25 10:33:00,
2013-05-25 03:38:00,58.6,36.9,29.85,SSW,207,0.0,7.0,44,0.00,,,0.00,0.0,meteohub,2013-05-25 10:38:00,
2013-05-25 03:43:00,58.5,37.2,29.85,SSW,209,0.0,7.0,45,0.00,,,0.00,0.0,meteohub,2013-05-25 10:43:00,
2013-05-25 03:48:00,58.6,38.5,29.85,SSW,210,3.0,7.0,47,0.00,,,0.00,0.0,meteohub,2013-05-25 10:48:00,
2013-05-25 03:53:00,58.6,38.5,29.86,SSW,209,6.0,7.0,47,0.00,,,0.00,0.0,meteohub,2013-05-25 10:53:00,
2013-05-25 03:58:00,58.6,39.0,29.86,SSW,211,0.0,7.0,48,0.00,,,0.00,0.0,meteohub,2013-05-25 10:58:00,
2013-05-25 04:03:00,58.5,38.8,29.86,SSW,212,1.0,8.0,48,0.00,,,0.00,0.0,meteohub,2013-05-25 11:03:00,
2013-05-25 04:08:00,58.5,38.8,29.86,SSW,212,0.0,8.0,48,0.00,,,0.00,0.0,meteohub,2013-05-25 11:08:00,
2013-05-25 04:13:00,58.5,39.4,29.86,SW,215,0.0,8.0,49,0.00,,,0.00,0.0,meteohub,2013-05-25 11:13:00,
2013-05-25 04:19:00,58.5,39.4,29.85,SW,217,8.0,8.0,49,0.00,,,0.00,0.0,meteohub,2013-05-25 11:19:00,
2013-05-25 04:23:00,58.5,39.9,29.85,SW,218,0.0,8.0,50,0.00,,,0.00,0.0,meteohub,2013-05-25 11:23:00,
2013-05-25 04:29:00,58.3,40.3,29.86,SW,218,0.0,8.0,51,0.00,,,0.00,0.0,meteohub,2013-05-25 11:29:00,
2013-05-25 04:34:00,58.1,40.1,29.86,SW,218,0.0,8.0,51,0.00,,,0.00,0.0,meteohub,2013-05-25 11:34:00,
2013-05-25 04:39:00,57.9,40.5,29.85,SW,219,0.0,8.0,52,0.00,,,0.00,0.0,meteohub,2013-05-25 11:39:00,
2013-05-25 04:44:00,57.9,40.5,29.85,SW,223,0.0,8.0,52,0.00,,,0.00,0.0,meteohub,2013-05-25 11:44:00,
2013-05-25 04:49:00,57.9,40.8,29.85,SW,225,0.0,8.0,53,0.00,,,0.00,0.0,meteohub,2013-05-25 11:49:00,
2013-05-25 04:54:00,57.7,40.3,29.86,SW,224,5.0,8.0,52,0.00,,,0.00,0.0,meteohub,2013-05-25 11:54:00,
2013-05-25 04:59:00,57.7,40.3,29.86,SW,225,0.0,13.0,52,0.00,,,0.00,0.0,meteohub,2013-05-25 11:59:00,
2013-05-25 05:04:00,57.9,39.9,29.86,SW,225,6.0,13.0,51,0.00,,,0.00,0.0,meteohub,2013-05-25 12:04:00,
2013-05-25 05:09:00,58.3,40.3,29.86,SW,225,0.0,13.0,51,0.00,,,0.00,0.0,meteohub,2013-05-25 12:09:00,
2013-05-25 05:14:00,58.3,40.3,29.86,SW,229,1.0,13.0,51,0.00,,,0.00,0.0,meteohub,2013-05-25 12:14:00,
2013-05-25 05:19:00,58.3,40.3,29.85,SW,227,7.0,13.0,51,0.00,,,0.00,0.0,meteohub,2013-05-25 12:19:00,
2013-05-25 05:24:00,58.3,40.3,29.85,SW,224,7.0,13.0,51,0.00,,,0.00,0.0,meteohub,2013-05-25 12:24:00,
2013-05-25 05:29:00,58.1,40.1,29.85,SW,224,0.0,12.0,51,0.00,,,0.00,0.0,meteohub,2013-05-25 12:29:00,
2013-05-25 05:34:00,57.9,40.5,29.85,SW,227,0.0,12.0,52,0.00,,,0.00,0.0,meteohub,2013-05-25 12:34:00,
2013-05-25 05:39:00,57.7,40.3,29.85,SW,227,0.0,12.0,52,0.00,,,0.00,0.0,meteohub,2013-05-25 12:39:00,
2013-05-25 05:44:00,57.7,40.6,29.85,SW,227,0.0,12.0,53,0.00,,,0.00,5.0,meteohub,2013-05-25 12:44:00,
2013-05-25 05:49:00,57.6,40.6,29.85,SW,227,2.0,12.0,53,0.00,,,0.00,7.0,meteohub,2013-05-25 12:49:00,
2013-05-25 05:54:00,57.6,40.1,29.86,SW,227,0.0,12.0,52,0.00,,,0.00,12.0,meteohub,2013-05-25 12:54:00,
2013-05-25 05:59:00,57.6,40.1,29.86,SW,227,2.0,12.0,52,0.00,,,0.00,16.0,meteohub,2013-05-25 12:59:00,
2013-05-25 06:04:00,57.6,40.6,29.86,SW,227,4.0,12.0,53,0.00,,,0.00,19.0,meteohub,2013-05-25 13:04:00,
2013-05-25 06:09:00,57.6,40.6,29.86,SW,229,7.0,12.0,53,0.00,,,0.00,21.0,meteohub,2013-05-25 13:09:00,
2013-05-25 06:14:00,57.7,40.6,29.86,SW,229,1.0,12.0,53,0.00,,,0.00,23.0,meteohub,2013-05-25 13:14:00,
2013-05-25 06:19:00,57.7,40.6,29.86,SW,229,0.0,12.0,53,0.00,,,0.00,25.0,meteohub,2013-05-25 13:19:00,
2013-05-25 06:24:00,57.9,40.8,29.86,SW,229,5.0,10.0,53,0.00,,,0.00,28.0,meteohub,2013-05-25 13:24:00,
2013-05-25 06:29:00,58.1,40.6,29.86,SW,228,5.0,10.0,52,0.00,,,0.00,32.0,meteohub,2013-05-25 13:29:00,
2013-05-25 06:34:00,58.5,40.5,29.86,SW,228,1.0,10.0,51,0.00,,,0.00,33.0,meteohub,2013-05-25 13:34:00,
2013-05-25 06:39:00,58.6,40.1,29.86,SW,229,6.0,10.0,50,0.00,,,0.00,39.0,meteohub,2013-05-25 13:39:00,
2013-05-25 06:44:00,59.0,39.9,29.86,SW,224,2.0,10.0,49,0.00,,,0.00,49.0,meteohub,2013-05-25 13:44:00,
2013-05-25 06:49:00,59.2,40.1,29.86,SW,225,0.0,10.0,49,0.00,,,0.00,63.0,meteohub,2013-05-25 13:49:00,
2013-05-25 06:54:00,59.4,40.3,29.86,SW,225,6.0,10.0,49,0.00,,,0.00,86.0,meteohub,2013-05-25 13:54:00,
2013-05-25 06:59:00,59.5,40.3,29.86,SW,221,2.0,10.0,49,0.00,,,0.00,114.0,meteohub,2013-05-25 13:59:00,
2013-05-25 07:04:00,59.9,40.1,29.86,SW,227,8.0,10.0,48,0.00,,,0.00,142.0,meteohub,2013-05-25 14:04:00,
2013-05-25 07:09:00,60.1,40.3,29.86,SW,227,4.0,10.0,48,0.00,,,0.00,172.0,meteohub,2013-05-25 14:09:00,
2013-05-25 07:14:00,60.4,40.6,29.86,SW,226,0.0,10.0,48,0.00,,,0.00,174.0,meteohub,2013-05-25 14:14:00,
2013-05-25 07:19:00,60.6,40.3,29.86,SW,223,1.0,10.0,47,0.00,,,0.00,197.0,meteohub,2013-05-25 14:19:00,
2013-05-25 07:24:00,61.0,40.6,29.86,SW,228,0.0,10.0,47,0.00,,,0.00,213.0,meteohub,2013-05-25 14:24:00,
2013-05-25 07:29:00,61.2,39.7,29.86,SW,228,3.0,13.0,45,0.00,,,0.00,220.0,meteohub,2013-05-25 14:29:00,
2013-05-25 07:34:00,61.5,39.4,29.86,SW,217,5.0,13.0,44,0.00,,,0.00,221.0,meteohub,2013-05-25 14:34:00,
2013-05-25 07:39:00,61.9,39.7,29.86,SW,223,6.0,13.0,44,0.00,,,0.00,246.0,meteohub,2013-05-25 14:39:00,
2013-05-25 07:45:00,62.2,39.4,29.86,SW,232,15.0,15.0,43,0.00,,,0.00,299.0,meteohub,2013-05-25 14:45:00,
2013-05-25 07:50:00,62.4,39.6,29.87,WSW,240,13.0,13.0,43,0.00,,,0.00,338.0,meteohub,2013-05-25 14:50:00,
2013-05-25 07:55:00,63.0,40.1,29.87,SW,232,6.0,13.0,43,0.00,,,0.00,348.0,meteohub,2013-05-25 14:55:00,
2013-05-25 08:00:00,63.1,39.7,29.86,SW,216,8.0,13.0,42,0.00,,,0.00,380.0,meteohub,2013-05-25 15:00:00,
2013-05-25 08:05:00,63.3,40.5,29.86,SW,217,4.0,13.0,43,0.00,,,0.00,411.0,meteohub,2013-05-25 15:05:00,
2013-05-25 08:10:00,63.7,41.4,29.86,SW,222,5.0,13.0,44,0.00,,,0.00,415.0,meteohub,2013-05-25 15:10:00,
2013-05-25 08:15:00,63.9,41.0,29.86,SW,234,5.0,13.0,43,0.00,,,0.00,432.0,meteohub,2013-05-25 15:15:00,
2013-05-25 08:20:00,64.0,41.2,29.86,SW,221,0.0,13.0,43,0.00,,,0.00,424.0,meteohub,2013-05-25 15:20:00,
2013-05-25 08:25:00,64.8,41.2,29.86,SW,234,5.0,13.0,42,0.00,,,0.00,446.0,meteohub,2013-05-25 15:25:00,
2013-05-25 08:30:00,65.1,41.5,29.86,SW,221,6.0,18.0,42,0.00,,,0.00,461.0,meteohub,2013-05-25 15:30:00,
2013-05-25 08:35:00,65.1,40.3,29.86,SW,224,0.0,18.0,40,0.00,,,0.00,519.0,meteohub,2013-05-25 15:35:00,
2013-05-25 08:40:00,65.5,40.5,29.86,SW,231,6.0,18.0,40,0.00,,,0.00,485.0,meteohub,2013-05-25 15:40:00,
2013-05-25 08:45:00,65.7,40.6,29.86,SW,230,6.0,18.0,40,0.00,,,0.00,533.0,meteohub,2013-05-25 15:45:00,
2013-05-25 08:50:00,66.0,40.3,29.86,SW,221,8.0,18.0,39,0.00,,,0.00,548.0,meteohub,2013-05-25 15:50:00,
2013-05-25 08:55:00,66.4,39.9,29.86,SW,219,0.0,18.0,38,0.00,,,0.00,575.0,meteohub,2013-05-25 15:55:00,
2013-05-25 09:00:00,66.7,39.6,29.86,SW,217,8.0,18.0,37,0.00,,,0.00,587.0,meteohub,2013-05-25 16:00:00,
2013-05-25 09:05:00,67.5,41.0,29.86,SW,226,5.0,18.0,38,0.00,,,0.00,573.0,meteohub,2013-05-25 16:05:00,
2013-05-25 09:10:00,67.8,39.9,29.86,SW,230,6.0,18.0,36,0.00,,,0.00,612.0,meteohub,2013-05-25 16:10:00,
2013-05-25 09:15:00,68.2,39.6,29.86,SW,223,8.0,18.0,35,0.00,,,0.00,619.0,meteohub,2013-05-25 16:15:00,
2013-05-25 09:20:00,68.5,39.7,29.86,SW,234,1.0,18.0,35,0.00,,,0.00,657.0,meteohub,2013-05-25 16:20:00,
2013-05-25 09:25:00,69.3,39.7,29.86,SW,219,12.0,16.0,34,0.00,,,0.00,642.0,meteohub,2013-05-25 16:25:00,
2013-05-25 09:30:00,69.3,38.8,29.86,SSW,211,2.0,16.0,33,0.00,,,0.00,631.0,meteohub,2013-05-25 16:30:00,
2013-05-25 09:35:00,69.4,39.9,29.86,SSW,211,8.0,16.0,34,0.00,,,0.00,629.0,meteohub,2013-05-25 16:35:00,
2013-05-25 09:40:00,69.3,39.7,29.86,SW,222,12.0,16.0,34,0.00,,,0.00,661.0,meteohub,2013-05-25 16:40:00,
2013-05-25 09:45:00,69.4,40.6,29.86,SSW,213,3.0,16.0,35,0.00,,,0.00,645.0,meteohub,2013-05-25 16:45:00,
2013-05-25 09:50:00,69.6,39.9,29.86,SW,225,12.0,16.0,34,0.00,,,0.00,715.0,meteohub,2013-05-25 16:50:00,
2013-05-25 09:55:00,69.6,39.9,29.86,SW,229,11.0,16.0,34,0.00,,,0.00,691.0,meteohub,2013-05-25 16:55:00,
2013-05-25 10:00:00,69.4,39.0,29.86,SW,235,11.0,16.0,33,0.00,,,0.00,770.0,meteohub,2013-05-25 17:00:00,
2013-05-25 10:05:00,69.6,39.9,29.86,SW,216,14.0,16.0,34,0.00,,,0.00,733.0,meteohub,2013-05-25 17:05:00,
2013-05-25 10:10:00,70.2,40.5,29.86,SSW,213,3.0,16.0,34,0.00,,,0.00,795.0,meteohub,2013-05-25 17:10:00,
2013-05-25 10:15:00,70.3,40.6,29.86,South,190,5.0,16.0,34,0.00,,,0.00,724.0,meteohub,2013-05-25 17:15:00,
2013-05-25 10:20:00,70.9,41.2,29.86,SW,225,9.0,23.0,34,0.00,,,0.00,784.0,meteohub,2013-05-25 17:20:00,
2013-05-25 10:25:00,70.9,40.3,29.86,SW,234,6.0,23.0,33,0.00,,,0.00,816.0,meteohub,2013-05-25 17:25:00,
2013-05-25 10:30:00,71.1,39.7,29.86,SW,215,7.0,23.0,32,0.00,,,0.00,821.0,meteohub,2013-05-25 17:30:00,
2013-05-25 10:35:00,71.1,39.7,29.86,SSW,213,4.0,23.0,32,0.00,,,0.00,863.0,meteohub,2013-05-25 17:35:00,
2013-05-25 10:40:00,71.2,39.9,29.86,SW,223,3.0,23.0,32,0.00,,,0.00,849.0,meteohub,2013-05-25 17:40:00,
2013-05-25 10:45:00,71.8,40.3,29.86,SW,216,11.0,23.0,32,0.00,,,0.00,860.0,meteohub,2013-05-25 17:45:00,
2013-05-25 10:51:00,72.1,39.0,29.86,SW,217,5.0,23.0,30,0.00,,,0.00,898.0,meteohub,2013-05-25 17:51:00,
2013-05-25 10:56:00,72.9,40.5,29.86,WSW,258,1.0,23.0,31,0.00,,,0.00,935.0,meteohub,2013-05-25 17:56:00,
2013-05-25 11:01:00,73.2,39.0,29.86,SSW,210,7.0,23.0,29,0.00,,,0.00,916.0,meteohub,2013-05-25 18:01:00,
2013-05-25 11:06:00,72.9,38.7,29.86,SW,223,7.0,23.0,29,0.00,,,0.00,831.0,meteohub,2013-05-25 18:06:00,
2013-05-25 11:11:00,72.9,39.6,29.86,SW,228,4.0,23.0,30,0.00,,,0.00,889.0,meteohub,2013-05-25 18:11:00,
2013-05-25 11:16:00,73.0,39.7,29.86,SSW,211,7.0,19.0,30,0.00,,,0.00,835.0,meteohub,2013-05-25 18:16:00,
2013-05-25 11:21:00,73.0,40.6,29.86,WSW,240,7.0,19.0,31,0.00,,,0.00,949.0,meteohub,2013-05-25 18:21:00,
2013-05-25 11:26:00,73.0,40.6,29.86,West,268,12.0,19.0,31,0.00,,,0.00,933.0,meteohub,2013-05-25 18:26:00,
2013-05-25 11:31:00,73.4,40.1,29.86,SSW,213,8.0,19.0,30,0.00,,,0.00,962.0,meteohub,2013-05-25 18:31:00,
2013-05-25 11:36:00,73.2,40.8,29.86,SSW,208,6.0,19.0,31,0.00,,,0.00,963.0,meteohub,2013-05-25 18:36:00,
2013-05-25 11:41:00,73.6,42.6,29.86,SW,230,2.0,19.0,33,0.00,,,0.00,967.0,meteohub,2013-05-25 18:41:00,
2013-05-25 11:46:00,74.1,42.4,29.86,SW,224,9.0,19.0,32,0.00,,,0.00,868.0,meteohub,2013-05-25 18:46:00,
2013-05-25 11:51:00,73.9,41.4,29.86,SW,223,5.0,19.0,31,0.00,,,0.00,981.0,meteohub,2013-05-25 18:51:00,
2013-05-25 11:56:00,74.1,42.4,29.86,SW,222,11.0,19.0,32,0.00,,,0.00,984.0,meteohub,2013-05-25 18:56:00,
2013-05-25 12:01:00,74.1,41.5,29.86,South,190,5.0,19.0,31,0.00,,,0.00,990.0,meteohub,2013-05-25 19:01:00,
2013-05-25 12:06:00,74.3,43.3,29.86,West,266,9.0,19.0,33,0.00,,,0.00,997.0,meteohub,2013-05-25 19:06:00,
2013-05-25 12:11:00,74.8,42.3,29.86,SW,216,7.0,19.0,31,0.00,,,0.00,997.0,meteohub,2013-05-25 19:11:00,
2013-05-25 12:16:00,75.0,42.3,29.86,SW,233,8.0,19.0,31,0.00,,,0.00,1030.0,meteohub,2013-05-25 19:16:00,
2013-05-25 12:21:00,74.7,42.8,29.86,SSW,200,5.0,19.0,32,0.00,,,0.00,1025.0,meteohub,2013-05-25 19:21:00,
2013-05-25 12:26:00,75.0,43.9,29.86,SSW,209,5.0,19.0,33,0.00,,,0.00,965.0,meteohub,2013-05-25 19:26:00,
2013-05-25 12:31:00,74.8,43.0,29.86,SSW,198,0.0,19.0,32,0.00,,,0.00,983.0,meteohub,2013-05-25 19:31:00,
2013-05-25 12:36:00,74.8,43.0,29.86,SW,231,7.0,19.0,32,0.00,,,0.00,1021.0,meteohub,2013-05-25 19:36:00,
2013-05-25 12:41:00,75.6,43.7,29.86,SW,225,1.0,19.0,32,0.00,,,0.00,1016.0,meteohub,2013-05-25 19:41:00,
2013-05-25 12:46:00,75.4,43.5,29.86,West,262,14.0,19.0,32,0.00,,,0.00,1021.0,meteohub,2013-05-25 19:46:00,
2013-05-25 12:51:00,75.0,43.2,29.86,SSW,211,11.0,19.0,32,0.00,,,0.00,935.0,meteohub,2013-05-25 19:51:00,
2013-05-25 12:56:00,75.4,44.2,29.86,SW,221,9.0,19.0,33,0.00,,,0.00,1011.0,meteohub,2013-05-25 19:56:00,
2013-05-25 13:01:00,75.6,42.8,29.86,WSW,238,13.0,19.0,31,0.00,,,0.00,997.0,meteohub,2013-05-25 20:01:00,
2013-05-25 13:06:00,75.6,44.4,29.86,SW,225,9.0,19.0,33,0.00,,,0.00,1020.0,meteohub,2013-05-25 20:06:00,
2013-05-25 13:11:00,75.9,44.8,29.86,South,184,4.0,19.0,33,0.00,,,0.00,972.0,meteohub,2013-05-25 20:11:00,
2013-05-25 13:16:00,75.9,43.9,29.86,SW,221,4.0,24.0,32,0.00,,,0.00,1037.0,meteohub,2013-05-25 20:16:00,
2013-05-25 13:21:00,76.3,45.1,29.86,SSW,198,1.0,24.0,33,0.00,,,0.00,1028.0,meteohub,2013-05-25 20:21:00,
2013-05-25 13:26:00,75.9,44.8,29.86,South,182,5.0,24.0,33,0.00,,,0.00,1055.0,meteohub,2013-05-25 20:26:00,
2013-05-25 13:31:00,76.3,44.2,29.86,SSW,212,11.0,24.0,32,0.00,,,0.00,949.0,meteohub,2013-05-25 20:31:00,
2013-05-25 13:36:00,76.3,45.9,29.86,SSW,198,6.0,24.0,34,0.00,,,0.00,990.0,meteohub,2013-05-25 20:36:00,
2013-05-25 13:41:00,75.7,46.2,29.86,South,173,5.0,24.0,35,0.00,,,0.00,1000.0,meteohub,2013-05-25 20:41:00,
2013-05-25 13:46:00,75.9,45.5,29.86,SW,217,7.0,24.0,34,0.00,,,0.00,990.0,meteohub,2013-05-25 20:46:00,
2013-05-25 13:51:00,76.1,45.7,29.86,SW,220,6.0,24.0,34,0.00,,,0.00,988.0,meteohub,2013-05-25 20:51:00,
2013-05-25 13:56:00,75.6,45.1,29.86,SSW,196,9.0,24.0,34,0.00,,,0.00,981.0,meteohub,2013-05-25 20:56:00,
2013-05-25 14:01:00,75.0,45.5,29.86,WSW,242,10.0,24.0,35,0.00,,,0.00,977.0,meteohub,2013-05-25 21:01:00,
2013-05-25 14:07:00,75.0,45.5,29.86,SSW,199,3.0,24.0,35,0.00,,,0.00,969.0,meteohub,2013-05-25 21:07:00,
2013-05-25 14:12:00,75.4,46.6,29.86,South,178,6.0,24.0,36,0.00,,,0.00,962.0,meteohub,2013-05-25 21:12:00,
2013-05-25 14:17:00,76.1,45.0,29.86,SW,220,6.0,24.0,33,0.00,,,0.00,958.0,meteohub,2013-05-25 21:17:00,
2013-05-25 14:22:00,76.5,46.0,29.86,SSW,210,1.0,21.0,34,0.00,,,0.00,953.0,meteohub,2013-05-25 21:22:00,
2013-05-25 14:27:00,76.3,45.9,29.86,SSW,192,10.0,21.0,34,0.00,,,0.00,939.0,meteohub,2013-05-25 21:27:00,
2013-05-25 14:32:00,76.1,45.7,29.86,SSW,198,7.0,21.0,34,0.00,,,0.00,933.0,meteohub,2013-05-25 21:32:00,
2013-05-25 14:37:00,76.3,45.9,29.86,SW,233,6.0,21.0,34,0.00,,,0.00,926.0,meteohub,2013-05-25 21:37:00,
2013-05-25 14:42:00,75.9,45.5,29.86,South,180,5.0,21.0,34,0.00,,,0.00,916.0,meteohub,2013-05-25 21:42:00,
2013-05-25 14:47:00,76.3,45.1,29.86,SSW,211,7.0,21.0,33,0.00,,,0.00,911.0,meteohub,2013-05-25 21:47:00,
2013-05-25 14:52:00,75.9,45.5,29.86,SSW,200,6.0,21.0,34,0.00,,,0.00,900.0,meteohub,2013-05-25 21:52:00,
2013-05-25 14:57:00,75.9,45.5,29.86,SW,223,15.0,21.0,34,0.00,,,0.00,893.0,meteohub,2013-05-25 21:57:00,
2013-05-25 15:02:00,76.3,45.9,29.86,SSW,202,9.0,21.0,34,0.00,,,0.00,881.0,meteohub,2013-05-25 22:02:00,
2013-05-25 15:07:00,76.3,45.9,29.86,SSW,205,9.0,21.0,34,0.00,,,0.00,872.0,meteohub,2013-05-25 22:07:00,
2013-05-25 15:12:00,76.5,46.0,29.86,South,181,9.0,21.0,34,0.00,,,0.00,861.0,meteohub,2013-05-25 22:12:00,
2013-05-25 15:17:00,76.5,46.0,29.86,SW,216,8.0,21.0,34,0.00,,,0.00,846.0,meteohub,2013-05-25 22:17:00,
2013-05-25 15:22:00,76.3,45.9,29.86,South,183,7.0,23.0,34,0.00,,,0.00,837.0,meteohub,2013-05-25 22:22:00,
2013-05-25 15:27:00,76.5,45.1,29.86,SSW,209,6.0,23.0,33,0.00,,,0.00,821.0,meteohub,2013-05-25 22:27:00,
2013-05-25 15:32:00,75.9,45.5,29.86,SSW,192,7.0,23.0,34,0.00,,,0.00,809.0,meteohub,2013-05-25 22:32:00,
2013-05-25 15:37:00,75.7,46.2,29.85,SSE,166,7.0,23.0,35,0.00,,,0.00,802.0,meteohub,2013-05-25 22:37:00,
2013-05-25 15:42:00,75.7,46.2,29.85,SSW,198,5.0,23.0,35,0.00,,,0.00,788.0,meteohub,2013-05-25 22:42:00,
2013-05-25 15:47:00,75.4,45.1,29.85,SSW,198,14.0,23.0,34,0.00,,,0.00,773.0,meteohub,2013-05-25 22:47:00,
2013-05-25 15:52:00,74.8,45.3,29.85,SW,221,21.0,23.0,35,0.00,,,0.00,763.0,meteohub,2013-05-25 22:52:00,
2013-05-25 15:57:00,74.8,46.0,29.85,SSW,209,7.0,23.0,36,0.00,,,0.00,744.0,meteohub,2013-05-25 22:57:00,
2013-05-25 16:02:00,75.0,46.9,29.85,SW,221,5.0,23.0,37,0.00,,,0.00,735.0,meteohub,2013-05-25 23:02:00,
2013-05-25 16:07:00,74.8,46.8,29.85,SSW,212,15.0,23.0,37,0.00,,,0.00,719.0,meteohub,2013-05-25 23:07:00,
2013-05-25 16:12:00,74.8,46.0,29.85,South,188,6.0,23.0,36,0.00,,,0.00,703.0,meteohub,2013-05-25 23:12:00,
2013-05-25 16:17:00,74.7,47.3,29.85,SSW,196,6.0,26.0,38,0.00,,,0.00,691.0,meteohub,2013-05-25 23:17:00,
2013-05-25 16:22:00,74.7,45.9,29.85,SW,217,12.0,26.0,36,0.00,,,0.00,675.0,meteohub,2013-05-25 23:22:00,
2013-05-25 16:27:00,74.7,45.9,29.85,SSW,209,12.0,26.0,36,0.00,,,0.00,661.0,meteohub,2013-05-25 23:27:00,
2013-05-25 16:32:00,74.7,45.9,29.85,SW,222,10.0,26.0,36,0.00,,,0.00,645.0,meteohub,2013-05-25 23:32:00,
2013-05-25 16:37:00,75.2,46.4,29.85,SW,225,11.0,26.0,36,0.00,,,0.00,631.0,meteohub,2013-05-25 23:37:00,
2013-05-25 16:42:00,75.4,46.6,29.85,SW,219,8.0,26.0,36,0.00,,,0.00,613.0,meteohub,2013-05-25 23:42:00,
2013-05-25 16:47:00,75.0,46.2,29.85,SSW,209,7.0,26.0,36,0.00,,,0.00,596.0,meteohub,2013-05-25 23:47:00,
2013-05-25 16:52:00,74.8,46.0,29.85,SW,218,6.0,26.0,36,0.00,,,0.00,580.0,meteohub,2013-05-25 23:52:00,
2013-05-25 16:57:00,74.5,45.9,29.85,SSW,207,6.0,26.0,36,0.00,,,0.00,568.0,meteohub,2013-05-25 23:57:00,
2013-05-25 17:02:00,74.7,45.9,29.85,South,190,6.0,26.0,36,0.00,,,0.00,552.0,meteohub,2013-05-26 00:02:00,
2013-05-25 17:07:00,74.7,46.6,29.85,SSW,196,8.0,26.0,37,0.00,,,0.00,533.0,meteohub,2013-05-26 00:07:00,
2013-05-25 17:12:00,74.8,46.0,29.85,SW,219,6.0,21.0,36,0.00,,,0.00,478.0,meteohub,2013-05-26 00:12:00,
2013-05-25 17:17:00,74.1,45.5,29.85,SW,236,16.0,21.0,36,0.00,,,0.00,476.0,meteohub,2013-05-26 00:17:00,
2013-05-25 17:22:00,73.8,45.1,29.85,SSW,200,5.0,21.0,36,0.00,,,0.00,494.0,meteohub,2013-05-26 00:22:00,
2013-05-25 17:27:00,73.6,44.2,29.84,South,170,10.0,21.0,35,0.00,,,0.00,464.0,meteohub,2013-05-26 00:27:00,
2013-05-25 17:33:00,73.2,44.6,29.85,SSW,208,6.0,21.0,36,0.00,,,0.00,429.0,meteohub,2013-05-26 00:33:00,
2013-05-25 17:38:00,72.7,44.2,29.85,SW,227,15.0,21.0,36,0.00,,,0.00,431.0,meteohub,2013-05-26 00:38:00,
2013-05-25 17:43:00,72.5,44.8,29.84,SW,221,19.0,21.0,37,0.00,,,0.00,304.0,meteohub,2013-05-26 00:43:00,
2013-05-25 17:48:00,72.1,45.1,29.84,WSW,239,12.0,21.0,38,0.00,,,0.00,276.0,meteohub,2013-05-26 00:48:00,
2013-05-25 17:53:00,72.1,45.9,29.85,SSW,205,9.0,21.0,39,0.00,,,0.00,350.0,meteohub,2013-05-26 00:53:00,
2013-05-25 17:58:00,72.1,45.9,29.84,SW,225,16.0,21.0,39,0.00,,,0.00,330.0,meteohub,2013-05-26 00:58:00,
2013-05-25 18:03:00,72.0,46.4,29.85,SW,223,18.0,21.0,40,0.00,,,0.00,334.0,meteohub,2013-05-26 01:03:00,
2013-05-25 18:08:00,71.6,46.6,29.85,SW,229,10.0,21.0,41,0.00,,,0.00,322.0,meteohub,2013-05-26 01:08:00,
2013-05-25 18:13:00,71.4,46.6,29.85,SSW,210,7.0,21.0,41,0.00,,,0.00,308.0,meteohub,2013-05-26 01:13:00,
2013-05-25 18:18:00,71.2,46.9,29.85,SSW,211,7.0,21.0,42,0.00,,,0.00,260.0,meteohub,2013-05-26 01:18:00,
2013-05-25 18:23:00,70.9,47.3,29.85,SSW,200,13.0,21.0,43,0.00,,,0.00,246.0,meteohub,2013-05-26 01:23:00,
2013-05-25 18:28:00,70.5,46.9,29.85,SSW,207,5.0,21.0,43,0.00,,,0.00,246.0,meteohub,2013-05-26 01:28:00,
2013-05-25 18:33:00,70.3,48.0,29.85,SSW,195,8.0,21.0,45,0.00,,,0.00,241.0,meteohub,2013-05-26 01:33:00,
2013-05-25 18:38:00,70.2,47.8,29.85,SSW,206,7.0,21.0,45,0.00,,,0.00,220.0,meteohub,2013-05-26 01:38:00,
2013-05-25 18:43:00,70.0,47.7,29.85,SSW,213,6.0,21.0,45,0.00,,,0.00,193.0,meteohub,2013-05-26 01:43:00,
2013-05-25 18:48:00,69.8,48.0,29.85,SW,217,5.0,21.0,46,0.00,,,0.00,167.0,meteohub,2013-05-26 01:48:00,
2013-05-25 18:53:00,69.6,47.8,29.85,South,188,7.0,21.0,46,0.00,,,0.00,144.0,meteohub,2013-05-26 01:53:00,
2013-05-25 18:58:00,69.4,48.4,29.86,SW,227,5.0,21.0,47,0.00,,,0.00,121.0,meteohub,2013-05-26 01:58:00,
2013-05-25 19:03:00,69.3,48.2,29.86,SSW,204,4.0,21.0,47,0.00,,,0.00,107.0,meteohub,2013-05-26 02:03:00,
2013-05-25 19:08:00,69.3,48.2,29.85,South,182,14.0,19.0,47,0.00,,,0.00,90.0,meteohub,2013-05-26 02:08:00,
2013-05-25 19:13:00,68.5,48.0,29.86,SSW,209,4.0,19.0,48,0.00,,,0.00,72.0,meteohub,2013-05-26 02:13:00,
2013-05-25 19:18:00,68.0,47.7,29.86,SSW,206,7.0,19.0,48,0.00,,,0.00,60.0,meteohub,2013-05-26 02:18:00,
2013-05-25 19:23:00,67.6,46.8,29.86,SSW,201,2.0,19.0,47,0.00,,,0.00,46.0,meteohub,2013-05-26 02:23:00,
2013-05-25 19:28:00,67.5,47.1,29.86,SW,225,2.0,19.0,48,0.00,,,0.00,35.0,meteohub,2013-05-26 02:28:00,
2013-05-25 19:33:00,66.9,46.6,29.86,SW,222,7.0,19.0,48,0.00,,,0.00,21.0,meteohub,2013-05-26 02:33:00,
2013-05-25 19:38:00,66.6,45.7,29.86,SSW,205,4.0,19.0,47,0.00,,,0.00,18.0,meteohub,2013-05-26 02:38:00,
2013-05-25 19:43:00,66.4,46.6,29.86,SSW,213,4.0,19.0,49,0.00,,,0.00,12.0,meteohub,2013-05-26 02:43:00,
2013-05-25 19:48:00,65.8,46.8,29.86,SW,215,6.0,19.0,50,0.00,,,0.00,9.0,meteohub,2013-05-26 02:48:00,
2013-05-25 19:53:00,65.7,46.6,29.86,SW,216,15.0,19.0,50,0.00,,,0.00,5.0,meteohub,2013-05-26 02:53:00,
2013-05-25 19:58:00,65.3,46.2,29.86,SW,227,10.0,19.0,50,0.00,,,0.00,0.0,meteohub,2013-05-26 02:58:00,
2013-05-25 20:03:00,64.9,46.4,29.86,SW,223,1.0,19.0,51,0.00,,,0.00,0.0,meteohub,2013-05-26 03:03:00,
2013-05-25 20:08:00,64.8,45.7,29.86,SSW,194,0.0,19.0,50,0.00,,,0.00,0.0,meteohub,2013-05-26 03:08:00,
2013-05-25 20:13:00,64.6,45.5,29.87,SW,231,8.0,19.0,50,0.00,,,0.00,0.0,meteohub,2013-05-26 03:13:00,
2013-05-25 20:18:00,64.2,45.7,29.87,SW,219,5.0,18.0,51,0.00,,,0.00,0.0,meteohub,2013-05-26 03:18:00,
2013-05-25 20:23:00,64.0,46.0,29.87,SW,215,3.0,18.0,52,0.00,,,0.00,0.0,meteohub,2013-05-26 03:23:00,
2013-05-25 20:28:00,63.9,45.9,29.87,SW,224,7.0,18.0,52,0.00,,,0.00,0.0,meteohub,2013-05-26 03:28:00,
2013-05-25 20:33:00,63.7,45.7,29.87,SW,217,0.0,18.0,52,0.00,,,0.00,0.0,meteohub,2013-05-26 03:33:00,
2013-05-25 20:38:00,63.5,45.5,29.87,SSW,198,2.0,18.0,52,0.00,,,0.00,0.0,meteohub,2013-05-26 03:38:00,
2013-05-25 20:44:00,63.3,45.9,29.87,SSW,200,0.0,18.0,53,0.00,,,0.00,0.0,meteohub,2013-05-26 03:44:00,
2013-05-25 20:49:00,63.1,45.7,29.88,SSW,213,2.0,18.0,53,0.00,,,0.00,0.0,meteohub,2013-05-26 03:49:00,
2013-05-25 20:54:00,63.1,45.7,29.88,SSW,194,6.0,18.0,53,0.00,,,0.00,0.0,meteohub,2013-05-26 03:54:00,
2013-05-25 20:59:00,63.0,45.5,29.88,SW,218,5.0,18.0,53,0.00,,,0.00,0.0,meteohub,2013-05-26 03:59:00,
2013-05-25 21:01:00,63.0,46.0,29.88,SSW,211,0.0,18.0,54,0.00,,,0.00,0.0,meteohub,2013-05-26 04:01:00,
2013-05-25 21:02:00,62.8,45.3,29.88,SSW,205,3.0,18.0,53,0.00,,,0.00,0.0,meteohub,2013-05-26 04:02:00,
2013-05-25 21:07:00,62.8,45.3,29.88,South,186,8.0,18.0,53,0.00,,,0.00,0.0,meteohub,2013-05-26 04:07:00,
2013-05-25 21:12:00,62.6,45.1,29.88,SSE,162,0.0,18.0,53,0.00,,,0.00,0.0,meteohub,2013-05-26 04:12:00,
2013-05-25 21:17:00,62.4,45.1,29.88,South,179,4.0,12.0,53,0.00,,,0.00,0.0,meteohub,2013-05-26 04:17:00,
2013-05-25 21:22:00,62.4,45.1,29.88,SSW,203,7.0,12.0,53,0.00,,,0.00,0.0,meteohub,2013-05-26 04:22:00,
2013-05-25 21:27:00,62.4,44.6,29.88,South,183,1.0,12.0,52,0.00,,,0.00,0.0,meteohub,2013-05-26 04:27:00,
2013-05-25 21:32:00,62.4,44.6,29.88,South,188,5.0,12.0,52,0.00,,,0.00,0.0,meteohub,2013-05-26 04:32:00,
2013-05-25 21:37:00,62.4,44.6,29.88,SSW,192,3.0,12.0,52,0.00,,,0.00,0.0,meteohub,2013-05-26 04:37:00,
2013-05-25 21:42:00,62.4,44.6,29.88,SSW,196,3.0,12.0,52,0.00,,,0.00,0.0,meteohub,2013-05-26 04:42:00,
2013-05-25 21:47:00,62.2,45.0,29.88,South,186,1.0,12.0,53,0.00,,,0.00,0.0,meteohub,2013-05-26 04:47:00,
2013-05-25 21:52:00,62.2,45.0,29.88,South,191,5.0,12.0,53,0.00,,,0.00,0.0,meteohub,2013-05-26 04:52:00,
2013-05-25 21:57:00,62.1,44.8,29.88,SSE,166,3.0,12.0,53,0.00,,,0.00,0.0,meteohub,2013-05-26 04:57:00,
2013-05-25 22:02:00,62.1,44.8,29.88,SSW,205,3.0,12.0,53,0.00,,,0.00,0.0,meteohub,2013-05-26 05:02:00,
2013-05-25 22:07:00,62.1,44.8,29.88,SSW,197,4.0,12.0,53,0.00,,,0.00,0.0,meteohub,2013-05-26 05:07:00,
2013-05-25 22:13:00,61.9,44.6,29.88,SSW,207,3.0,12.0,53,0.00,,,0.00,0.0,meteohub,2013-05-26 05:13:00,
2013-05-25 22:18:00,61.9,44.6,29.88,SSW,193,4.0,12.0,53,0.00,,,0.00,0.0,meteohub,2013-05-26 05:18:00,
2013-05-25 22:22:00,61.9,44.1,29.88,South,190,0.0,12.0,52,0.00,,,0.00,0.0,meteohub,2013-05-26 05:22:00,
2013-05-25 22:27:00,61.9,44.1,29.88,SSW,205,5.0,12.0,52,0.00,,,0.00,0.0,meteohub,2013-05-26 05:27:00,
2013-05-25 22:32:00,61.9,43.5,29.88,South,190,1.0,12.0,51,0.00,,,0.00,0.0,meteohub,2013-05-26 05:32:00,
2013-05-25 22:38:00,61.9,43.5,29.89,South,180,2.0,12.0,51,0.00,,,0.00,0.0,meteohub,2013-05-26 05:38:00,
2013-05-25 22:43:00,61.9,43.0,29.88,South,185,0.0,12.0,50,0.00,,,0.00,0.0,meteohub,2013-05-26 05:43:00,
2013-05-25 22:48:00,62.1,42.6,29.88,SW,221,5.0,12.0,49,0.00,,,0.00,0.0,meteohub,2013-05-26 05:48:00,
2013-05-25 22:53:00,62.4,42.4,29.88,SW,224,5.0,12.0,48,0.00,,,0.00,0.0,meteohub,2013-05-26 05:53:00,
2013-05-25 22:58:00,62.4,41.9,29.88,SSW,192,7.0,12.0,47,0.00,,,0.00,0.0,meteohub,2013-05-26 05:58:00,
2013-05-25 23:03:00,62.6,42.1,29.88,SW,222,5.0,12.0,47,0.00,,,0.00,0.0,meteohub,2013-05-26 06:03:00,
2013-05-25 23:08:00,62.6,42.1,29.88,SW,221,1.0,12.0,47,0.00,,,0.00,0.0,meteohub,2013-05-26 06:08:00,
2013-05-25 23:13:00,62.6,42.1,29.88,SSW,210,4.0,12.0,47,0.00,,,0.00,0.0,meteohub,2013-05-26 06:13:00,
2013-05-25 23:18:00,62.6,42.1,29.88,South,184,4.0,12.0,47,0.00,,,0.00,0.0,meteohub,2013-05-26 06:18:00,
2013-05-25 23:23:00,62.4,41.9,29.88,South,190,3.0,12.0,47,0.00,,,0.00,0.0,meteohub,2013-05-26 06:23:00,
2013-05-25 23:28:00,62.2,41.7,29.88,South,190,0.0,12.0,47,0.00,,,0.00,0.0,meteohub,2013-05-26 06:28:00,
2013-05-25 23:33:00,62.1,42.1,29.88,South,190,1.0,12.0,48,0.00,,,0.00,0.0,meteohub,2013-05-26 06:33:00,
2013-05-25 23:38:00,61.9,41.9,29.88,SSE,167,2.0,12.0,48,0.00,,,0.00,0.0,meteohub,2013-05-26 06:38:00,
2013-05-25 23:43:00,61.9,42.4,29.88,South,169,0.0,12.0,49,0.00,,,0.00,0.0,meteohub,2013-05-26 06:43:00,
2013-05-25 23:48:00,61.5,42.3,29.88,South,169,4.0,12.0,49,0.00,,,0.00,0.0,meteohub,2013-05-26 06:48:00,
2013-05-25 23:53:00,61.3,42.6,29.88,South,170,2.0,12.0,50,0.00,,,0.00,0.0,meteohub,2013-05-26 06:53:00,
2013-05-25 23:58:00,61.3,42.6,29.88,SSW,208,3.0,12.0,50,0.00,,,0.00,0.0,meteohub,2013-05-26 06:58:00,